[[{"header":{"parameterUnit":"m.s-1","parameterCategory":1,"la1":30.2991,"la2":30.254,"lo1":-89.0895,"lo2":-89.0444,"dy":0.0017,"dx":0.0017,"nx":28,"ny":28,"refTime":"2025-12-26T03:00:00:Z","depth":0,"parameterNumber":2,"parameterNumberName":"U-component_of_WINDS"},"data":[0,0,0,0,0,0,0,0,0,0,0,0,0,0,0,0,0,0,0,0,0,0,0,0,0,0,0,0,0,0,0,0,0,0,0,0,0,0,0,0,0,0,0,0,0,0,0,0,0,0,0,0,0,0,0,0,0,0,0.7527,0.7528,0,0.7588,0.7589,0.7589,0.7617,0.7617,0.7617,0.7617,0.768,0.7682,0.7684,0,0,0,0,0,0,0,0,0,0,0,0,0,0.7436,0.7438,0.7527,0.7528,0.7528,0.7588,0.7589,0.759,0.7617,0.7617,0.7617,0.7617,0.768,0.7682,0.7684,0,0,0,0,0,0,0,0,0,0,0,0,0,0.7484,0.7438,0.7527,0.7549,0.7552,0.7588,0.7589,0.759,0.7617,0.7617,0.7617,0.7617,0.7679,0.7681,0.7684,0.7702,0,0,0.7692,0.7693,0,0,0,0,0,0,0,0,0.7482,0.7488,0.7545,0.7548,0.7551,0.7595,0.758,0.7628,0.7617,0.7592,0.7617,0.7617,0.7652,0.7657,0.7668,0.7705,0.7708,0.7692,0.7694,0.7695,0.7696,0,0,0,0,0,0,0,0.7478,0.7485,0.7551,0.7546,0.7549,0.7557,0.7564,0.7589,0.7622,0.7595,0.7597,0.7604,0.7653,0.7666,0.767,0.7709,0.7692,0.7695,0.7696,0.7697,0.7767,0.7768,0,0,0,0,0,0,0.7471,0.7482,0.7549,0.7553,0.7515,0.7559,0.7566,0.7581,0.7622,0.7628,0.7604,0.7605,0.7661,0.7667,0.7672,0.7699,0.7695,0.7697,0.7699,0.7767,0.7767,0.7768,0,0,0,0,0,0,0.7469,0.7477,0.7547,0.7518,0.7528,0.7561,0.7577,0.7582,0.7595,0.7629,0.7635,0.761,0.7662,0.7669,0.7695,0.7701,0.7699,0.7701,0.7767,0.7767,0.7768,0.775,0,0,0,0,0,0,0.7466,0.7476,0.7482,0.7518,0.7529,0.7568,0.7577,0.7583,0.7599,0.7601,0.7636,0.7642,0.7662,0.7691,0.7698,0.7705,0.7703,0.7766,0.7767,0.7767,0.7751,0.775,0.775,0,0,0,0,0,0.7463,0.7474,0.7482,0.749,0.7538,0.7568,0.7574,0.7597,0.7599,0.7607,0.7629,0.7641,0.77,0.7694,0.7702,0.7709,0.7766,0.7767,0.7767,0.7751,0.775,0.775,0,0,0,0,0,0,0.7437,0.7479,0.7489,0.7512,0.7536,0.7572,0.7582,0.7595,0.7619,0.762,0.7647,0.7655,0.768,0.7697,0.769,0.7731,0.7734,0.7736,0.7719,0.7719,0.7718,0.7714,0.7705,0,0,0,0,0,0.7434,0.7455,0.749,0.7507,0.7519,0.7549,0.7562,0.7578,0.7605,0.7615,0.7639,0.7665,0.7689,0.7705,0.7729,0.7753,0.7763,0.7763,0.7762,0.7762,0.7764,0.7781,0.7782,0.777,0.777,0.777,0,0,0.7428,0.7454,0.7465,0.7503,0.7524,0.7546,0.7557,0.7579,0.7596,0.7618,0.7646,0.7664,0.7695,0.7721,0.7734,0.7737,0.777,0.7763,0.7762,0.7764,0.7782,0.7783,0.7784,0.777,0.777,0.777,0,0,0.7429,0.7449,0.7467,0.7488,0.752,0.754,0.7544,0.758,0.7593,0.7621,0.764,0.766,0.7701,0.7723,0.774,0.7752,0.7765,0.7759,0.7758,0.7775,0.7776,0.7777,0.7784,0.7786,0.7761,0.7761,0.7761,0,0.7417,0.745,0.7474,0.7497,0.7514,0.7536,0.7556,0.7575,0.7613,0.7625,0.7627,0.7681,0.7703,0.7737,0.774,0.7752,0.7759,0.7756,0.7773,0.7775,0.7776,0.7783,0.7786,0.776,0.776,0.7761,0.7761,0,0.7436,0.7459,0.747,0.7507,0.7526,0.7546,0.7575,0.7591,0.7606,0.7626,0.7656,0.7683,0.7715,0.7724,0.7738,0.776,0.7761,0.7768,0.7772,0.7776,0.7784,0.7786,0.7759,0.776,0.776,0.776,0,0,0.7421,0.7473,0.7477,0.7496,0.7534,0.7553,0.7575,0.7607,0.7622,0.7647,0.7669,0.7704,0.7712,0.7731,0.7747,0.7762,0.7774,0.7767,0.7769,0.777,0.7804,0.78,0.7802,0.7782,0.7783,0.7783,0.7802,0,0.7428,0.747,0.7494,0.7526,0.7549,0.7572,0.7592,0.7619,0.7639,0.7662,0.7685,0.7711,0.7717,0.7729,0.7744,0.7769,0.7781,0.7768,0.7804,0.7805,0.7797,0.7806,0.7801,0.7817,0.7805,0.7805,0.7806,0,0.7441,0.7469,0.7504,0.7542,0.7553,0.7571,0.7603,0.7625,0.7656,0.767,0.7693,0.771,0.7737,0.7739,0.7777,0.7768,0.7784,0.7799,0.78,0.7806,0.7806,0.7813,0.7822,0.7825,0.781,0.7809,0.7809,0,0.743,0.7475,0.7503,0.7518,0.7563,0.7575,0.7595,0.7626,0.7645,0.7673,0.7686,0.7717,0.7735,0.7759,0.7786,0.7784,0.7823,0.7826,0.7837,0.7836,0.7845,0.7844,0.7859,0.7852,0.7852,0.7852,0.7852,0,0.7436,0.7457,0.7499,0.7515,0.7541,0.7569,0.7593,0.7615,0.7643,0.7666,0.7687,0.7708,0.7741,0.7767,0.7787,0.7818,0.7825,0.7839,0.7844,0.7838,0.7836,0.785,0.785,0.7853,0.7853,0.7853,0.7853,0,0.7427,0.7455,0.7488,0.7529,0.754,0.7557,0.7592,0.7611,0.7633,0.7662,0.767,0.7706,0.7737,0.7766,0.7808,0.7822,0.7854,0.786,0.7843,0.7847,0.7857,0.7857,0.7882,0.7888,0.7876,0.7876,0.7876,0,0.743,0.7447,0.7491,0.7508,0.7528,0.7554,0.7574,0.7604,0.7623,0.7663,0.7677,0.771,0.7739,0.7789,0.7819,0.7852,0.786,0.7867,0.7865,0.7859,0.7863,0.7862,0.7865,0.7867,0.7867,0.7867,0.7867,0,0.7433,0.7447,0.7475,0.7508,0.7532,0.7559,0.7588,0.76,0.7635,0.7657,0.769,0.7713,0.7757,0.7791,0.7827,0.7849,0.7865,0.7867,0.7872,0.7866,0.7857,0.7865,0.7845,0.7866,0.7866,0.7866,0.7866,0.7866,0.7432,0.7449,0.7484,0.7515,0.754,0.7567,0.7587,0.7613,0.7641,0.768,0.7695,0.773,0.7764,0.7815,0.7837,0.7866,0.7868,0.7874,0.7877,0.7878,0.7878,0.7851,0.7872,0.7872,0.7872,0.7872,0.7872,0,0.7438,0.7462,0.749,0.753,0.7556,0.7568,0.7601,0.7622,0.7652,0.7683,0.7711,0.7751,0.7785,0.7818,0.7854,0.7871,0.7879,0.788,0.788,0.7885,0.7872,0.7866,0.7873,0.7873,0.7873,0.7873,0.7873,0.7873,0.7444,0.7476,0.7494,0.7539,0.7563,0.7598,0.7616,0.7642,0.7667,0.7711,0.7739,0.7761,0.7794,0.7833,0.7865,0.7875,0.7888,0.7887,0.7898,0.7886,0.7885,0.7885,0.7879,0.7889,0.7889,0.7909,0.7909,0.7909]},{"header":{"parameterUnit":"m.s-1","parameterCategory":1,"la1":30.2991,"la2":30.254,"lo1":-89.0895,"lo2":-89.0444,"dy":0.0017,"dx":0.0017,"nx":28,"ny":28,"refTime":"2025-12-26T03:00:00:Z","depth":0,"parameterNumber":3,"parameterNumberName":"V-component_of_WINDS"},"data":[0,0,0,0,0,0,0,0,0,0,0,0,0,0,0,0,0,0,0,0,0,0,0,0,0,0,0,0,0,0,0,0,0,0,0,0,0,0,0,0,0,0,0,0,0,0,0,0,0,0,0,0,0,0,0,0,0,0,2.8058,2.8058,0,2.8043,2.8043,2.8043,2.8035,2.8035,2.8035,2.8035,2.8017,2.8017,2.8016,0,0,0,0,0,0,0,0,0,0,0,0,0,2.8079,2.8079,2.8058,2.8058,2.8058,2.8043,2.8043,2.8043,2.8035,2.8035,2.8035,2.8035,2.8017,2.8017,2.8016,0,0,0,0,0,0,0,0,0,0,0,0,0,2.8068,2.8079,2.8058,2.8052,2.8051,2.8043,2.8043,2.8043,2.8035,2.8035,2.8035,2.8035,2.8018,2.8017,2.8016,2.8012,0,0,2.8014,2.8014,0,0,0,0,0,0,0,0,2.8068,2.8067,2.8053,2.8052,2.8052,2.8041,2.8044,2.8032,2.8035,2.8041,2.8035,2.8035,2.8025,2.8024,2.8021,2.8011,2.8011,2.8014,2.8014,2.8013,2.8013,0,0,0,0,0,0,0,2.8069,2.8067,2.8052,2.8053,2.8052,2.805,2.8048,2.8042,2.8033,2.804,2.804,2.8038,2.8025,2.8022,2.802,2.801,2.8014,2.8014,2.8013,2.8013,2.8,2.8,0,0,0,0,0,0,2.8071,2.8068,2.8052,2.8052,2.806,2.805,2.8048,2.8044,2.8033,2.8032,2.8038,2.8038,2.8023,2.8021,2.802,2.8016,2.8013,2.8013,2.8012,2.8,2.8,2.8,0,0,0,0,0,0,2.8072,2.807,2.8053,2.806,2.8058,2.8049,2.8045,2.8044,2.8041,2.8032,2.803,2.8037,2.8023,2.8021,2.8015,2.8015,2.8012,2.8012,2.8,2.8,2.8,2.8008,0,0,0,0,0,0,2.8072,2.807,2.8068,2.806,2.8057,2.8049,2.8045,2.8044,2.804,2.804,2.803,2.8028,2.8023,2.8016,2.8014,2.8014,2.8011,2.7999,2.8,2.8,2.8007,2.8008,2.8009,0,0,0,0,0,2.8073,2.807,2.8068,2.8066,2.8055,2.8049,2.8047,2.8041,2.804,2.8039,2.8033,2.8029,2.8016,2.8016,2.8013,2.8013,2.7999,2.8,2.8,2.8007,2.8008,2.8009,0,0,0,0,0,0,2.8077,2.8069,2.8066,2.8061,2.8056,2.8047,2.8045,2.8042,2.8036,2.8036,2.8028,2.8026,2.8022,2.8017,2.8017,2.801,2.8007,2.8007,2.8013,2.8014,2.8015,2.8016,2.8011,0,0,0,0,0,2.8077,2.8073,2.8066,2.8062,2.8059,2.8053,2.805,2.8046,2.804,2.8038,2.8031,2.8025,2.802,2.8017,2.8011,2.8007,2.8005,2.8006,2.8007,2.8007,2.8007,2.8006,2.8007,2.8,2.8,2.8,0,0,2.8078,2.8073,2.807,2.8062,2.8058,2.8054,2.8051,2.8046,2.8044,2.8036,2.8032,2.8027,2.802,2.8016,2.8013,2.8011,2.8009,2.8007,2.8008,2.8007,2.8007,2.8007,2.8008,2.8,2.8,2.8,0,0,2.8077,2.8072,2.8069,2.8065,2.806,2.8056,2.8055,2.8048,2.8045,2.804,2.8036,2.8032,2.8023,2.8019,2.8016,2.8016,2.8013,2.8015,2.8018,2.8018,2.8018,2.8019,2.802,2.8021,2.8015,2.8015,2.8015,0,2.8077,2.8072,2.8067,2.8064,2.8062,2.8057,2.8055,2.8051,2.8043,2.8041,2.804,2.803,2.8025,2.802,2.8021,2.8018,2.8018,2.8016,2.8019,2.8019,2.8019,2.8021,2.8021,2.8015,2.8015,2.8015,2.8015,0,2.8075,2.8071,2.8069,2.8064,2.8061,2.8058,2.8054,2.8051,2.8048,2.8045,2.8041,2.8035,2.8029,2.8028,2.8024,2.8024,2.8023,2.802,2.8017,2.8021,2.8022,2.8022,2.8016,2.8015,2.8015,2.8015,0,0,2.8074,2.8068,2.8068,2.8067,2.8061,2.8058,2.8056,2.8052,2.8051,2.8046,2.8044,2.8038,2.8036,2.8033,2.8029,2.8028,2.8032,2.8026,2.8025,2.8028,2.8033,2.8036,2.8036,2.8029,2.8029,2.8029,2.8034,0,2.8073,2.8069,2.8066,2.8064,2.8061,2.8058,2.8056,2.8053,2.805,2.8048,2.8044,2.8041,2.8038,2.8036,2.8035,2.8031,2.8033,2.8031,2.8028,2.8028,2.8031,2.8037,2.8039,2.8044,2.8034,2.8034,2.8034,0,2.8071,2.8069,2.8066,2.8064,2.8063,2.8061,2.8059,2.8056,2.8053,2.8051,2.8049,2.8045,2.8043,2.8041,2.8039,2.8038,2.8037,2.8035,2.8035,2.8035,2.8032,2.8038,2.8045,2.8046,2.8035,2.8035,2.8035,0,2.8073,2.8069,2.8068,2.8067,2.8063,2.8062,2.8061,2.8058,2.8056,2.8054,2.8053,2.805,2.8048,2.8046,2.8043,2.8041,2.8041,2.8038,2.804,2.8041,2.804,2.8041,2.8048,2.8039,2.8039,2.8039,2.8038,0,2.8072,2.8071,2.8069,2.8068,2.8068,2.8065,2.8064,2.8062,2.806,2.8059,2.8056,2.8055,2.805,2.8049,2.8045,2.8045,2.8044,2.8043,2.8042,2.8044,2.8044,2.8043,2.8043,2.8039,2.8039,2.8039,2.8039,0,2.8074,2.8072,2.8071,2.8069,2.8068,2.8068,2.8066,2.8066,2.8064,2.8063,2.8063,2.8059,2.8058,2.8054,2.8051,2.8049,2.805,2.8048,2.8052,2.8052,2.8055,2.8055,2.8062,2.8064,2.8053,2.8053,2.8053,0,2.8074,2.8073,2.8072,2.8072,2.8072,2.8071,2.807,2.8068,2.8068,2.8066,2.8066,2.8065,2.8064,2.8062,2.8059,2.8057,2.8056,2.8059,2.8055,2.8058,2.8057,2.8058,2.8059,2.8059,2.806,2.806,2.806,0,2.8075,2.8075,2.8074,2.8075,2.8075,2.8074,2.8074,2.8074,2.8071,2.8071,2.8071,2.807,2.8069,2.8068,2.8067,2.8065,2.8062,2.8061,2.8062,2.8063,2.8066,2.8066,2.8055,2.8061,2.8061,2.8061,2.806,2.806,2.8076,2.8077,2.8077,2.8078,2.8078,2.8078,2.8078,2.8077,2.8077,2.8077,2.8076,2.8076,2.8075,2.8073,2.8072,2.8072,2.807,2.8071,2.8071,2.8072,2.8073,2.8066,2.8071,2.8071,2.8071,2.8071,2.8071,0,2.8078,2.8079,2.808,2.808,2.8081,2.808,2.808,2.8081,2.8082,2.8082,2.8082,2.8082,2.8082,2.808,2.808,2.8081,2.808,2.8081,2.8081,2.8081,2.8074,2.8074,2.8082,2.8082,2.8082,2.8082,2.8082,2.8082,2.8079,2.8081,2.8082,2.8084,2.8084,2.8086,2.8086,2.8087,2.8087,2.8089,2.8089,2.8089,2.8088,2.8088,2.8089,2.8088,2.8089,2.8091,2.809,2.8083,2.8082,2.8081,2.8081,2.8091,2.8091,2.8098,2.8098,2.8098]}]]